Home > Weather > Pointe-à-Pitre > Past weeks

Flag for Guadeloupe Past Weather in Pointe-à-Pitre, Guadeloupe — Yesterday and Last 2 Weeks

Now
79 °F

Clear.


Feels Like: 82 °F
Forecast: 78 / 88 °F
Wind: 6 mph from East

Location: Le Raizet - Guadeloupe

Current Time: Jul 25, 2016 at 10:45:13 PM

Latest Report: Jul 25, 2016 at 10:00 PM


Visibility: N/A

Pressure: 29.98 "Hg

Humidity: 89%

Dew Point: 75 °F

Location of Pointe-à-PitreLocation

Past Weather in Pointe-à-Pitre — Graph

°F

Pointe-à-Pitre Temperature Yesterday

Maximum temperature yesterday: 88 °F (at 11:00 AM)
Minimum temperature yesterday: 77 °F (at 12:00 AM)
Average temperature yesterday: 82 °F

High & Low Weather Summary for the Past Weeks

 TemperatureHumidityPressure
High90 °F (Jul 13, 1:00 PM)100% (Jul 18, 6:30 AM)30.09 "Hg (Jul 18, 6:30 AM)
Low73 °F (Jul 15, 5:30 AM)46% (Jul 14, 11:30 AM)29.92 "Hg (Jul 12, 3:30 PM)
Average82 °F76%29.99 "Hg
* Reported Jul 10 9:00 PM — Jul 25 9:30 PM, Pointe-à-Pitre, Weather by CustomWeather, © 2016

Note: Actual official high and low records may vary slightly from our data, if they occured in-between our weather recording intervals... More about our weather records

Advertising

Pointe-à-Pitre Weather History for the Previous 24 Hours

Scroll right to see more
 ConditionsComfort  
Time TempWeatherWind HumidityBarometerVisibility
9:30 PM
Mon, Jul 25
79 °FClear.5 mph89%29.98 "HgN/A
9:00 PM79 °FClear.6 mph89%29.98 "HgN/A
8:30 PM79 °FClear.5 mph89%29.98 "HgN/A
8:00 PM79 °FClear.6 mph89%29.98 "HgN/A
7:30 PM79 °FClear.3 mph89%29.95 "HgN/A
7:00 PM81 °FClear.3 mph84%29.95 "HgN/A
6:30 PM81 °FClear.5 mph89%29.95 "HgN/A
6:00 PM81 °FScattered clouds.6 mph89%29.95 "HgN/A
5:30 PM81 °FBroken clouds.6 mph89%29.95 "HgN/A
5:00 PM79 °FScattered clouds.2 mph84%29.95 "HgN/A
4:30 PM79 °FHeavy rain. Fog.10 mph84%29.95 "Hg1 mi
4:00 PM82 °FHeavy rain. Broken clouds.8 mph84%29.92 "HgN/A
3:30 PM82 °FBroken clouds.9 mph84%29.92 "HgN/A
3:00 PM84 °FLight rain. Partly sunny.12 mph79%29.95 "HgN/A
2:30 PM84 °FLight rain. Mostly cloudy.7 mph74%29.95 "HgN/A
2:00 PM86 °FBroken clouds.9 mph66%29.95 "HgN/A
1:30 PM88 °FPartly sunny.10 mph62%29.95 "HgN/A
1:00 PM88 °FBroken clouds.13 mph62%29.95 "HgN/A
12:30 PM86 °FBroken clouds.13 mph66%29.95 "HgN/A
12:00 PM88 °FScattered clouds.14 mph62%29.98 "HgN/A
11:30 AM86 °FBroken clouds.14 mph66%29.98 "HgN/A
11:00 AM86 °FBroken clouds.14 mph66%29.98 "HgN/A
10:30 AM84 °FBroken clouds.13 mph74%29.98 "HgN/A
10:00 AM86 °FPartly sunny.9 mph66%29.98 "HgN/A
9:30 AM82 °FMore clouds than sun.7 mph79%30.01 "HgN/A
9:00 AM82 °FOvercast.7 mph79%30.01 "HgN/A
8:30 AM79 °FOvercast.8 mph89%30.01 "HgN/A
8:00 AM79 °FMore clouds than sun.6 mph89%29.98 "HgN/A
7:30 AM79 °FPartly sunny.12 mph84%29.98 "HgN/A
7:00 AM79 °FWarm.6 mph89%29.98 "HgN/A
6:30 AM77 °FWarm.2 mph94%29.98 "HgN/A
6:00 AM75 °FClear.3 mph100%29.98 "HgN/A
5:30 AM75 °FClear.No wind94%29.95 "HgN/A
5:00 AM77 °FPassing clouds.2 mph89%29.95 "HgN/A
4:30 AM77 °FPartly cloudy.1 mph94%29.95 "HgN/A
4:00 AM77 °FPassing clouds.No wind89%29.95 "HgN/A
3:30 AM79 °FLight rain. Partly cloudy.5 mph84%29.95 "HgN/A
3:00 AM77 °FClear.No wind89%29.95 "HgN/A
2:30 AM77 °FClear.1 mph89%29.95 "HgN/A
2:00 AM79 °FClear.3 mph84%29.95 "HgN/A
1:30 AM79 °FClear.5 mph84%29.98 "HgN/A
1:00 AM79 °FPassing clouds.3 mph84%29.98 "HgN/A
12:30 AM79 °FClear.3 mph84%29.98 "HgN/A
12:00 AM79 °FClear.3 mph84%30.01 "HgN/A
11:30 PM
Sun, Jul 24
79 °FClear.5 mph84%30.01 "HgN/A
11:00 PM81 °FClear.3 mph79%30.01 "HgN/A
10:30 PM81 °FClear.6 mph79%30.01 "HgN/A
10:00 PM81 °FPassing clouds.5 mph79%30.01 "HgN/A
Weather by CustomWeather, © 2016

See weather overviewHow to use our weather pages